User: anonymous   Login
Location: Unspecified
(0.0000°N, 0.0000°E)
Time: 20:31:12
(UTC+00:00)
Language:

SIRIUS-1 - Orbit

View from above orbital plane
View from above orbital plane
View from above satellite
View from above satellite

Ground track
Ground track

The orbit data is extracted from the following two-line orbital elements,

1 26390U 00035A   21203.49442819  .00000073  00000-0  00000+0 0  9996
2 26390  59.3725 195.7805 0003962 280.4313 257.0317  1.57877082 87161
Epoch (UTC): 22 July 2021 11:51:58
Eccentricity: 0.0003962
inclination: 59.3725°
perigee height: 24764 km
apogee height: 24788 km
right ascension of ascending node: 195.7805°
argument of perigee: 280.4313°
revolutions per day: 1.57877082
mean anomaly at epoch: 257.0317°
orbit number at epoch: 8716

The dashed part of the orbit path shows where the satellite is in the earth's shadow,  

DLR